Wind_Speed
10 10 10 11 11 12 13 13 13 13 12 12 11 11 11 10 10 9 9 9 9 9 9 9 9 10 10 10 11 11 11 12 12 11 10 9 8 7 6 5 4 4 4
12 12 12 11 12 14 14 15 15 15 15 14 14 14 13 13 13 12 11 11 11 10 10 9 10 10 10 10 10 11 11 12 12 12 11 10 9 8 7 6 5 5 4
13 13 13 14 14 15 16 17 17 17 17 17 17 16 16 15 15 15 14 13 13 12 11 10 10 11 10 10 10 10 11 11 12 12 11 10 10 9 8 7 6 5 4
15 15 16 16 17 17 18 19 19 19 19 19 19 19 18 18 17 17 17 15 15 14 13 12 11 11 11 10 10 10 10 11 11 11 11 11 10 9 9 8 7 5 4
19 19 19 19 20 21 21 21 22 21 21 21 22 21 20 20 19 19 19 18 17 16 15 14 13 12 12 11 10 10 10 11 11 11 11 11 10 10 9 8 7 6 5
22 22 22 22 23 23 24 24 25 24 23 24 23 23 23 22 22 21 20 20 19 18 18 16 15 14 13 12 11 11 11 11 11 11 11 11 11 11 10 9 8 7 7
22 23 24 24 24 25 27 27 27 27 26 26 26 26 25 24 24 23 23 23 21 20 20 19 17 15 14 13 12 12 11 11 11 11 11 12 11 11 11 10 9 8 7
21 22 23 23 24 25 26 26 27 28 29 29 28 28 28 26 26 26 25 24 23 22 21 20 19 18 16 15 14 13 13 12 12 11 11 12 12 11 11 10 10 9 9
20 20 21 21 22 22 23 24 25 27 29 30 30 30 30 29 28 28 27 26 25 24 23 21 21 20 19 17 16 14 14 13 13 12 12 11 11 11 11 11 10 9 9
18 18 19 19 20 20 21 22 23 24 26 28 29 30 30 31 30 29 29 28 27 26 25 23 23 22 20 19 18 16 15 14 14 13 12 11 11 11 11 11 11 10 10
17 17 18 18 18 19 20 21 23 23 24 25 27 29 30 31 31 31 31 29 28 28 27 26 25 24 21 20 20 18 16 16 15 13 13 12 11 11 11 11 11 12 11
16 16 16 17 17 18 19 20 21 23 24 24 25 26 28 29 30 31 32 31 30 29 28 27 25 24 23 21 21 20 18 17 16 15 14 13 12 12 12 12 12 12 12
15 15 16 16 17 18 19 19 20 21 22 23 24 25 26 27 28 30 31 32 31 29 28 27 26 25 24 23 22 22 21 20 18 17 15 14 13 13 13 13 13 13 13
15 15 15 16 16 17 18 18 19 19 20 21 22 23 25 25 26 27 29 31 31 31 30 28 27 25 24 24 23 24 23 21 20 19 17 16 15 14 14 14 14 14 14
15 15 16 16 17 17 18 18 18 18 18 19 19 20 22 23 25 26 27 29 30 30 30 29 29 27 26 25 24 24 24 24 22 20 19 17 16 15 15 15 15 15 15
15 16 16 17 17 18 18 18 18 18 18 18 18 18 19 21 22 24 24 26 28 29 29 30 30 28 28 26 25 25 25 25 24 22 20 19 17 17 16 16 15 16 16
15 16 17 17 18 19 19 19 19 18 18 17 17 16 17 18 19 20 22 23 26 28 28 28 29 29 29 29 28 26 26 25 25 25 23 21 19 18 18 17 17 18 17
15 16 17 18 19 19 20 20 19 19 18 17 16 15 15 15 15 17 18 20 23 25 26 26 27 28 28 29 29 27 27 27 27 26 26 24 22 20 20 19 18 19 18
15 16 17 18 19 20 20 20 20 19 19 18 16 15 13 13 13 13 15 17 19 22 24 25 26 27 27 28 29 29 27 27 27 27 27 26 24 23 22 21 20 20 19
15 16 18 19 20 21 21 21 20 20 19 18 17 15 13 12 11 11 12 15 17 19 21 23 24 25 26 28 29 29 29 29 28 28 28 27 27 26 24 23 23 22 21
15 16 18 19 20 21 21 21 21 21 20 19 18 16 14 12 11 10 10 11 13 16 19 21 22 23 24 27 29 30 30 30 29 28 28 28 29 28 27 25 25 25 24
15 16 18 19 21 21 21 22 22 21 20 19 18 17 15 13 11 10 9 8 10 12 15 18 20 22 23 25 27 29 29 30 30 29 29 30 30 29 29 28 27 27 26
14 16 18 19 20 21 21 22 22 21 20 19 18 17 16 14 13 11 9 8 7 9 11 14 17 20 22 23 26 28 29 30 31 31 31 31 32 32 32 31 30 29 28
14 16 17 19 20 21 21 22 22 22 21 20 19 18 17 15 13 12 10 8 7 7 9 12 14 17 20 22 24 27 29 30 32 31 33 33 33 32 34 34 33 31 30
14 15 17 18 19 20 21 22 22 22 22 21 20 19 18 16 14 12 11 10 8 7 7 10 12 15 17 20 22 25 27 30 32 32 33 34 34 33 34 35 34 33 33
14 15 16 17 18 19 20 21 22 22 22 21 21 19 19 17 15 13 11 10 9 9 7 8 10 13 15 18 21 23 26 28 31 33 34 34 35 36 36 36 37 35 35
Wind_Direction
300 301 299 293 289 288 287 287 288 287 286 285 282 278 275 275 279 277 277 277 275 275 275 276 278 277 277 275 271 268 265 262 261 260 260 262 263 264 273 286 301 315 333
297 295 292 291 291 289 286 284 283 283 283 282 280 279 277 275 275 276 277 274 273 274 275 274 276 276 275 272 269 267 265 262 258 257 257 257 257 258 264 273 285 295 310
297 294 291 289 289 288 285 283 279 278 280 280 279 278 276 276 273 274 274 274 272 272 272 272 274 274 273 270 267 266 263 261 257 257 255 255 254 254 258 264 272 278 287
291 290 290 288 286 285 281 280 278 277 278 278 278 275 274 274 272 271 271 269 270 269 269 269 270 271 271 268 265 264 260 256 256 255 255 254 251 249 254 259 260 262 260
289 287 287 284 282 280 278 278 276 276 276 275 275 274 273 273 272 272 271 268 267 267 267 267 266 266 266 265 262 261 259 253 252 252 253 251 249 247 251 254 252 248 244
290 288 285 282 280 278 276 276 274 273 275 274 272 270 272 273 272 272 272 270 265 264 263 262 262 262 262 261 260 258 257 252 249 249 250 250 250 249 250 249 247 239 235
292 290 288 285 283 280 279 276 274 272 272 269 270 270 270 270 268 270 270 268 264 264 261 258 256 256 257 257 257 255 252 251 249 249 248 249 250 249 247 245 243 233 225
296 293 291 288 285 281 278 276 274 272 270 269 267 267 267 268 265 265 267 265 263 260 261 258 253 252 252 252 253 251 249 247 248 248 249 250 249 247 244 242 238 230 220
301 299 296 294 291 287 284 281 278 275 271 270 268 266 266 266 263 263 265 263 261 260 258 255 253 250 249 249 248 247 246 245 245 246 249 248 247 245 241 237 232 224 219
307 304 302 300 298 295 291 286 283 280 276 272 269 268 266 264 262 262 261 260 259 260 257 253 250 248 247 245 244 243 242 242 242 243 244 244 242 242 237 231 224 222 216
312 310 309 306 303 300 295 290 286 283 280 276 273 269 267 264 262 261 260 258 259 257 255 252 249 245 246 243 241 239 239 239 239 239 240 240 239 237 232 226 219 217 213
325 322 319 315 311 307 303 298 292 287 284 280 276 272 269 265 262 259 258 257 257 255 254 251 247 243 242 241 237 236 237 236 237 237 237 237 236 233 229 223 217 214 211
335 333 330 325 320 315 311 306 300 293 288 283 279 274 271 267 262 258 255 254 253 251 250 249 247 243 241 241 237 234 234 233 234 235 234 233 234 234 228 222 219 215 212
340 339 338 335 331 326 320 315 311 304 297 291 285 279 273 269 264 260 256 253 251 248 247 248 246 243 239 238 238 234 231 230 231 233 233 231 231 232 225 220 218 215 212
348 348 346 343 340 337 332 327 321 315 308 301 293 284 277 272 267 261 258 253 250 248 246 245 244 242 239 238 235 233 231 229 231 231 232 229 229 228 222 218 216 215 212
357 355 353 350 347 343 339 335 330 324 317 310 303 293 284 278 270 263 257 252 248 247 246 244 243 239 237 236 235 235 231 229 228 229 229 229 228 227 224 219 217 215 212
3 1 358 355 353 350 347 344 340 335 329 322 314 304 295 285 275 266 258 251 247 245 244 243 242 237 235 233 234 235 229 227 226 227 228 229 228 227 223 219 218 215 211
7 5 3 1 359 358 355 352 349 345 340 334 327 317 307 297 283 272 263 253 247 245 242 240 239 237 235 233 233 234 230 228 227 228 228 228 227 226 223 221 220 218 212
9 8 7 6 4 3 1 359 356 352 348 344 337 330 321 309 296 282 269 257 249 245 241 237 237 236 233 231 231 231 228 225 227 227 227 227 227 225 224 223 219 218 215
11 10 9 8 7 5 4 2 0 358 355 352 349 343 335 325 312 297 281 263 253 246 240 237 236 235 233 232 230 229 229 228 228 228 227 227 226 225 223 223 219 217 217
12 11 10 9 8 7 6 4 3 1 360 358 356 354 349 341 330 317 297 273 258 250 243 238 236 235 234 232 230 228 229 230 229 229 229 228 226 225 225 224 220 218 219
13 11 11 10 9 8 7 6 5 3 2 1 360 358 355 351 343 334 321 291 265 254 245 239 236 235 235 232 230 229 229 230 231 230 228 226 225 226 226 225 224 221 220
13 12 12 11 10 10 8 7 7 6 5 4 3 2 2 360 355 347 337 320 286 262 251 243 237 236 236 234 232 230 229 230 231 230 229 228 227 228 228 227 227 224 222
12 11 11 11 10 10 9 8 8 8 8 8 7 5 5 3 0 357 352 342 320 285 262 250 242 240 238 236 234 232 231 232 232 230 229 229 228 228 228 228 228 226 224
11 10 10 9 10 10 10 10 10 10 10 10 9 8 6 4 1 358 356 351 340 318 282 258 249 243 241 239 237 235 233 232 232 231 229 230 229 227 226 226 226 227 226
8 8 7 7 8 9 9 9 9 10 11 11 10 9 8 6 4 360 356 352 346 335 310 277 260 251 246 243 240 238 235 232 232 232 231 231 230 228 227 227 227 228 228
Height
5880 5879 5878 5877 5876 5876 5875 5874 5874 5873 5873 5873 5873 5873 5873 5873 5873 5873 5874 5874 5875 5875 5875 5876 5876 5876 5877 5877 5877 5878 5879 5879 5880 5881 5882 5882 5883 5884 5884 5884 5884 5884 5884
5878 5877 5876 5875 5874 5873 5873 5872 5871 5871 5870 5870 5870 5870 5870 5870 5871 5871 5871 5872 5872 5873 5873 5873 5874 5874 5875 5875 5875 5876 5877 5877 5878 5879 5880 5881 5882 5882 5883 5883 5884 5884 5884
5876 5875 5873 5873 5872 5871 5870 5869 5869 5868 5868 5867 5867 5867 5867 5867 5868 5868 5868 5869 5870 5870 5871 5871 5872 5872 5872 5873 5873 5874 5874 5875 5876 5877 5878 5879 5880 5881 5882 5882 5883 5883 5883
5873 5872 5871 5870 5869 5868 5867 5866 5865 5864 5864 5864 5864 5864 5864 5864 5864 5865 5865 5866 5867 5867 5868 5869 5869 5870 5870 5871 5871 5872 5872 5873 5874 5875 5876 5877 5878 5879 5880 5881 5882 5882 5883
5870 5869 5868 5867 5865 5865 5863 5862 5862 5861 5861 5861 5860 5860 5860 5860 5861 5861 5862 5863 5863 5864 5865 5866 5866 5867 5868 5868 5869 5870 5870 5871 5872 5873 5874 5876 5877 5878 5879 5880 5881 5881 5882
5866 5865 5864 5863 5861 5860 5859 5859 5858 5857 5857 5856 5856 5856 5856 5856 5856 5857 5858 5859 5859 5860 5861 5863 5863 5864 5865 5866 5867 5867 5868 5869 5870 5871 5872 5874 5875 5876 5877 5878 5879 5880 5881
5862 5861 5859 5858 5857 5856 5855 5854 5853 5852 5852 5851 5851 5851 5851 5852 5852 5852 5853 5854 5855 5856 5857 5858 5860 5861 5862 5863 5864 5865 5866 5867 5868 5869 5870 5872 5873 5874 5876 5877 5878 5879 5880
5858 5856 5855 5853 5852 5851 5849 5848 5848 5847 5846 5846 5846 5846 5846 5846 5846 5847 5848 5849 5850 5851 5852 5854 5856 5857 5859 5860 5861 5862 5863 5865 5866 5867 5868 5870 5871 5872 5874 5875 5876 5877 5879
5854 5852 5850 5848 5846 5845 5844 5843 5842 5841 5840 5840 5839 5840 5840 5840 5841 5842 5843 5844 5844 5846 5847 5849 5851 5853 5855 5857 5858 5859 5861 5862 5863 5865 5866 5867 5869 5870 5871 5873 5874 5876 5877
5850 5848 5846 5844 5842 5840 5839 5838 5836 5835 5834 5834 5833 5833 5833 5834 5834 5836 5837 5838 5839 5841 5842 5844 5846 5848 5850 5852 5854 5856 5858 5859 5861 5862 5864 5865 5866 5868 5869 5871 5872 5874 5876
5847 5845 5843 5840 5838 5836 5834 5833 5831 5830 5828 5827 5827 5827 5827 5827 5828 5829 5830 5832 5833 5835 5836 5838 5840 5843 5845 5848 5850 5852 5854 5856 5858 5860 5861 5863 5864 5865 5867 5869 5870 5872 5874
5844 5842 5839 5837 5835 5832 5830 5828 5826 5824 5823 5822 5821 5820 5820 5820 5821 5822 5824 5825 5827 5829 5831 5832 5835 5837 5840 5842 5846 5848 5850 5853 5855 5857 5859 5860 5862 5863 5865 5867 5869 5871 5873
5842 5839 5837 5834 5831 5829 5826 5824 5821 5819 5817 5816 5814 5814 5813 5814 5814 5815 5817 5818 5820 5822 5825 5827 5829 5831 5834 5837 5840 5844 5846 5849 5851 5854 5856 5858 5860 5861 5863 5865 5867 5869 5871
5840 5837 5835 5831 5829 5826 5823 5820 5817 5814 5812 5810 5809 5808 5807 5807 5807 5808 5809 5811 5813 5816 5819 5821 5824 5826 5829 5832 5835 5839 5842 5845 5848 5850 5853 5855 5857 5859 5860 5863 5865 5867 5869
5838 5835 5832 5829 5826 5823 5820 5816 5813 5810 5808 5805 5803 5802 5801 5801 5801 5802 5802 5804 5806 5809 5812 5815 5817 5821 5824 5827 5830 5833 5837 5841 5844 5846 5849 5852 5854 5856 5858 5860 5863 5865 5867
5837 5834 5831 5828 5824 5821 5817 5813 5810 5806 5803 5801 5799 5797 5796 5795 5795 5795 5796 5797 5800 5802 5805 5808 5811 5815 5818 5822 5825 5828 5832 5836 5839 5842 5845 5848 5851 5853 5855 5858 5860 5862 5865
5836 5832 5829 5826 5823 5819 5815 5811 5807 5803 5800 5797 5794 5792 5791 5789 5789 5789 5790 5791 5793 5796 5799 5802 5805 5808 5812 5816 5820 5823 5827 5831 5835 5838 5841 5844 5847 5850 5853 5855 5857 5860 5862
5835 5832 5828 5825 5822 5817 5813 5809 5805 5801 5798 5794 5791 5789 5786 5785 5784 5784 5784 5785 5787 5790 5793 5796 5799 5802 5806 5810 5814 5818 5822 5826 5830 5833 5837 5840 5844 5847 5850 5852 5855 5857 5860
5834 5831 5828 5824 5821 5816 5812 5808 5804 5800 5796 5792 5789 5786 5783 5781 5780 5780 5780 5781 5782 5784 5787 5790 5793 5797 5801 5804 5808 5812 5816 5821 5825 5828 5832 5836 5839 5843 5846 5849 5852 5855 5857
5833 5831 5827 5824 5820 5816 5812 5807 5803 5799 5795 5791 5787 5784 5781 5779 5777 5776 5776 5776 5778 5779 5782 5785 5788 5791 5795 5799 5803 5807 5811 5815 5819 5823 5827 5831 5835 5838 5842 5845 5848 5851 5854
5833 5830 5827 5823 5819 5815 5811 5807 5802 5798 5794 5790 5786 5783 5780 5777 5775 5774 5773 5773 5774 5775 5777 5780 5783 5786 5789 5793 5797 5801 5805 5809 5814 5818 5821 5825 5829 5833 5837 5841 5844 5848 5851
5832 5829 5826 5823 5819 5815 5811 5806 5802 5798 5793 5789 5786 5782 5779 5776 5774 5772 5771 5770 5771 5772 5773 5776 5778 5781 5784 5787 5791 5795 5799 5804 5808 5812 5816 5820 5824 5828 5832 5836 5840 5843 5847
5832 5829 5826 5822 5819 5815 5811 5807 5802 5798 5794 5790 5786 5782 5779 5776 5773 5771 5769 5768 5768 5769 5770 5772 5774 5776 5779 5782 5786 5789 5793 5798 5801 5806 5810 5814 5818 5822 5826 5831 5835 5838 5842
5832 5829 5826 5822 5819 5815 5811 5807 5802 5798 5794 5790 5786 5782 5779 5776 5773 5771 5769 5768 5767 5767 5768 5769 5770 5772 5775 5777 5780 5784 5787 5791 5795 5799 5804 5808 5812 5816 5820 5824 5829 5833 5837
5831 5828 5825 5822 5819 5815 5811 5807 5803 5798 5794 5790 5786 5782 5779 5776 5773 5771 5769 5767 5766 5765 5765 5766 5767 5769 5770 5773 5775 5778 5781 5785 5789 5792 5797 5801 5805 5809 5813 5818 5822 5827 5831
5830 5828 5825 5822 5818 5815 5811 5807 5803 5799 5795 5791 5787 5783 5779 5776 5773 5771 5768 5767 5765 5764 5763 5763 5764 5765 5766 5768 5770 5772 5775 5779 5782 5785 5789 5793 5798 5802 5806 5811 5816 5820 5824